TimeCEST,TemperatureF,Dew PointF,Humidity,Sea Level PressureIn,VisibilityMPH,Wind Direction,Wind SpeedMPH,Gust SpeedMPH,PrecipitationIn,Events,Conditions,WindDirDegrees,DateUTC
12:25 AM,46.4,44.6,93,29.80,6.2,South,6.9,-,N/A,,Overcast,170,2013-05-20 22:25:00
1:25 AM,46.4,42.8,87,29.80,6.2,Variable,3.5,-,N/A,,Overcast,0,2013-05-20 23:25:00
2:00 AM,46,44,89,29.83,6,,4.5,,,,Partly Cloudy,,2013-05-21 00:00:00
2:25 AM,44.6,44.6,100,29.80,1.8,Variable,2.3,-,N/A,,Overcast,0,2013-05-21 00:25:00
3:25 AM,44.6,44.6,100,29.80,6.2,Variable,3.5,-,N/A,,Overcast,0,2013-05-21 01:25:00
4:25 AM,44.6,44.6,100,29.80,-9999.0,Variable,1.2,-,N/A,,Overcast,0,2013-05-21 02:25:00
5:00 AM,46,45,94,29.81,2,Calm,Calm,,,,Mist,,2013-05-21 03:00:00
5:01 AM,46.4,44.6,93,29.77,-9999.0,Calm,Calm,-,N/A,Rain,Light Rain Showers,0,2013-05-21 03:01:00
5:25 AM,46.4,44.6,93,29.77,6.2,Calm,Calm,-,N/A,,Overcast,0,2013-05-21 03:25:00
5:31 AM,46.4,44.6,93,29.77,4.3,Calm,Calm,-,N/A,,Overcast,0,2013-05-21 03:31:00
5:51 AM,46.4,44.6,93,29.77,-9999.0,Variable,1.2,-,N/A,,Overcast,0,2013-05-21 03:51:00
6:25 AM,46.4,44.6,93,29.77,0.6,Variable,3.5,-,N/A,Fog,Fog,0,2013-05-21 04:25:00
6:32 AM,46.4,44.6,93,29.77,0.4,Variable,2.3,-,N/A,Fog,Fog,0,2013-05-21 04:32:00
6:52 AM,46.4,46.4,100,29.77,0.5,Variable,2.3,-,N/A,Fog,Fog,0,2013-05-21 04:52:00
7:06 AM,46.4,46.4,100,29.77,-9999.0,Variable,2.3,-,N/A,,Mostly Cloudy,0,2013-05-21 05:06:00
7:11 AM,46.4,46.4,100,29.80,-9999.0,Variable,2.3,-,N/A,,Mostly Cloudy,0,2013-05-21 05:11:00
7:25 AM,46.4,46.4,100,29.80,1.0,Variable,3.5,-,N/A,,Overcast,0,2013-05-21 05:25:00
7:51 AM,46.4,46.4,100,29.80,1.3,Variable,2.3,-,N/A,,Mostly Cloudy,0,2013-05-21 05:51:00
8:00 AM,47,46,95,29.81,1,,2.2,,,Rain,Light Drizzle,,2013-05-21 06:00:00
8:25 AM,46.4,46.4,100,29.80,1.9,South,4.6,-,N/A,,Light Drizzle,170,2013-05-21 06:25:00
9:25 AM,48.2,46.4,93,29.80,6.2,Variable,2.3,-,N/A,,Mostly Cloudy,0,2013-05-21 07:25:00
10:21 AM,48.2,46.4,93,29.80,6.2,SW,4.6,-,N/A,,Mostly Cloudy,220,2013-05-21 08:21:00
10:25 AM,48.2,46.4,93,29.80,6.2,SW,4.6,-,N/A,Rain,Light Rain,220,2013-05-21 08:25:00
10:31 AM,48.2,46.4,93,29.80,3.1,SW,6.9,-,N/A,Rain,Light Rain,230,2013-05-21 08:31:00
10:41 AM,48.2,46.4,93,29.80,3.7,SW,6.9,-,N/A,Rain,Light Rain,230,2013-05-21 08:41:00
11:00 AM,48,46,89,29.83,4,SW,4.5,,,Rain,Light Rain,230,2013-05-21 09:00:00
11:20 AM,48.2,46.4,93,29.83,5.0,WSW,4.6,-,N/A,,Mostly Cloudy,240,2013-05-21 09:20:00
11:25 AM,48.2,44.6,87,29.83,5.0,WSW,4.6,-,N/A,,Mostly Cloudy,240,2013-05-21 09:25:00
12:01 PM,50.0,46.4,87,29.83,6.2,Variable,3.5,-,N/A,Rain,Light Rain,0,2013-05-21 10:01:00
12:11 PM,50.0,44.6,82,29.83,6.2,SW,5.8,-,N/A,,Mostly Cloudy,230,2013-05-21 10:11:00
12:16 PM,50.0,46.4,87,29.83,6.2,WSW,5.8,-,N/A,,Mostly Cloudy,250,2013-05-21 10:16:00
12:25 PM,50.0,46.4,87,29.83,6.2,West,5.8,-,N/A,,Mostly Cloudy,260,2013-05-21 10:25:00
12:31 PM,50.0,46.4,87,29.83,6.2,WSW,6.9,-,N/A,,Mostly Cloudy,250,2013-05-21 10:31:00
12:41 PM,50.0,44.6,82,29.83,6.2,West,5.8,-,N/A,,Mostly Cloudy,260,2013-05-21 10:41:00
1:25 PM,51.8,44.6,76,29.83,6.2,WSW,4.6,-,N/A,,Mostly Cloudy,250,2013-05-21 11:25:00
2:00 PM,52,44,68,29.83,25,WSW,4.5,,,,Partly Cloudy,240,2013-05-21 12:00:00
2:06 PM,53.6,46.4,77,29.83,6.2,Variable,3.5,-,N/A,,Mostly Cloudy,0,2013-05-21 12:06:00
2:16 PM,53.6,44.6,72,29.83,6.2,West,5.8,-,N/A,,Mostly Cloudy,270,2013-05-21 12:16:00
2:25 PM,53.6,42.8,67,29.83,6.2,West,5.8,-,N/A,,Mostly Cloudy,260,2013-05-21 12:25:00
3:25 PM,51.8,44.6,76,29.83,6.2,West,8.1,-,N/A,,Mostly Cloudy,270,2013-05-21 13:25:00
4:25 PM,50.0,46.4,87,29.83,6.2,WNW,6.9,-,N/A,,Mostly Cloudy,290,2013-05-21 14:25:00
4:46 PM,50.0,46.4,87,29.83,6.2,WNW,9.2,-,N/A,,Mostly Cloudy,290,2013-05-21 14:46:00
5:00 PM,50,46,81,29.83,8,WNW,8.9,,,,Mostly Cloudy,300,2013-05-21 15:00:00
5:11 PM,50.0,46.4,87,29.83,6.2,West,8.1,-,N/A,,Mostly Cloudy,280,2013-05-21 15:11:00
5:25 PM,50.0,46.4,87,29.83,5.0,WNW,9.2,-,N/A,,Mostly Cloudy,290,2013-05-21 15:25:00
5:31 PM,48.2,46.4,93,29.83,3.1,WNW,10.4,-,N/A,,Mostly Cloudy,290,2013-05-21 15:31:00
6:01 PM,48.2,46.4,93,29.83,-9999.0,WNW,8.1,-,N/A,,Mostly Cloudy,300,2013-05-21 16:01:00
6:11 PM,48.2,46.4,93,29.83,-9999.0,WNW,9.2,-,N/A,,Mostly Cloudy,300,2013-05-21 16:11:00
6:25 PM,48.2,46.4,93,29.83,-9999.0,WNW,9.2,-,N/A,,Mostly Cloudy,300,2013-05-21 16:25:00
7:16 PM,46.4,46.4,100,29.83,-9999.0,West,10.4,-,N/A,,Mostly Cloudy,280,2013-05-21 17:16:00
7:25 PM,46.4,46.4,100,29.83,3.1,West,10.4,-,N/A,,Mostly Cloudy,280,2013-05-21 17:25:00
8:00 PM,46,46,98,29.85,3,West,11.2,,,Fog,Fog,280,2013-05-21 18:00:00
8:16 PM,46.4,44.6,93,29.83,5.6,West,8.1,-,N/A,,Mostly Cloudy,280,2013-05-21 18:16:00
8:25 PM,46.4,44.6,93,29.83,6.2,West,9.2,-,N/A,,Mostly Cloudy,280,2013-05-21 18:25:00
8:36 PM,46.4,44.6,93,29.83,3.7,West,8.1,-,N/A,,Overcast,280,2013-05-21 18:36:00
8:46 PM,46.4,44.6,93,29.83,4.3,West,6.9,-,N/A,,Overcast,280,2013-05-21 18:46:00
9:21 PM,44.6,44.6,100,29.83,5.6,WNW,10.4,-,N/A,,Mostly Cloudy,290,2013-05-21 19:21:00
9:25 PM,44.6,44.6,100,29.83,3.1,West,10.4,-,N/A,,Overcast,280,2013-05-21 19:25:00
9:27 PM,44.6,44.6,100,29.83,3.7,WNW,10.4,-,N/A,,Overcast,290,2013-05-21 19:27:00
9:39 PM,44.6,42.8,93,29.83,4.3,WNW,10.4,-,N/A,,Mostly Cloudy,290,2013-05-21 19:39:00
9:56 PM,44.6,42.8,93,29.83,6.2,WNW,6.9,-,N/A,,Mostly Cloudy,290,2013-05-21 19:56:00
10:02 PM,44.6,42.8,93,29.83,5.0,WNW,6.9,-,N/A,,Mostly Cloudy,290,2013-05-21 20:02:00
10:25 PM,44.6,42.8,93,29.83,6.2,West,6.9,-,N/A,,Mostly Cloudy,280,2013-05-21 20:25:00
11:00 PM,44,43,95,29.87,8,WNW,8.9,,,Rain,Light Rain,290,2013-05-21 21:00:00
11:25 PM,44.6,42.8,93,29.83,5.0,WNW,10.4,-,N/A,,Mostly Cloudy,290,2013-05-21 21:25:00